User: anonymous   Login
Location: Unspecified
(0.0000°N, 0.0000°E)
Time: 04:06:49
(UTC+00:00)
Language:

SKYMED 2 - Orbit

View from above orbital plane
View from above orbital plane
View from above satellite
View from above satellite

Ground track
Ground track

The orbit data is extracted from the following two-line orbital elements,

1 32376U 07059A   18292.86165741 -.00000217  00000-0 -20725-4 0  9994
2 32376  97.8903 114.6718 0001378  86.3311 273.8073 14.82151326587720
Epoch (UTC): 19 October 2018 20:40:47
Eccentricity: 0.0001378
inclination: 97.8903°
perigee height: 621 km
apogee height: 623 km
right ascension of ascending node: 114.6718°
argument of perigee: 86.3311°
revolutions per day: 14.82151326
mean anomaly at epoch: 273.8073°
orbit number at epoch: 58772

The dashed part of the orbit path shows where the satellite is in the earth's shadow,  

DLR